When you browse on this site, cookies collect data to enhance your experience and personalize the content and advertising you see.
Visit our Privacy Policy to learn more. By continuing to use the site, you agree to this use of cookies and data.
  • In Lithuania
  • List of Countries
  • For 7 days
  • Water Temperature
  • Weather Map
  • Weather Widgets
  • user-avatar
    Login

    Hourly Weather Tibissa

    Today, 16 October, Wednesday

    Time Temperature Precipitation Wind Pressure Humidity
    00:00 +17°C° 0 mm 2 mps 688 mmHg 81%
    01:00 +18°C° 0 mm 1 mps 688 mmHg 85%
    02:00 +16°C° 0.1 mm 1 mps 688 mmHg 86%
    03:00 +16°C° 0.1 mm 1 mps 688 mmHg 88%
    04:00 +16°C° 0.1 mm 1 mps 688 mmHg 90%
    05:00 +16°C° 0 mm 1 mps 688 mmHg 90%
    06:00 +16°C° 0 mm 1 mps 688 mmHg 90%
    07:00 +16°C° 0 mm 1 mps 688 mmHg 90%
    08:00 +18°C° 0 mm 1 mps 688 mmHg 84%
    09:00 +19°C° 0 mm 1 mps 688 mmHg 77%
    10:00 +19°C° 0 mm 2 mps 689 mmHg 70%
    11:00 +20°C° 0 mm 3 mps 689 mmHg 62%
    12:00 +22°C° 0 mm 3 mps 689 mmHg 53%
    13:00 +23°C° 0 mm 4 mps 689 mmHg 44%
    14:00 +23°C° 0.1 mm 4 mps 689 mmHg 43%
    15:00 +23°C° 0.1 mm 4 mps 688 mmHg 42%
    16:00 +23°C° 0.1 mm 4 mps 688 mmHg 41%
    17:00 +22°C° 0.1 mm 3 mps 688 mmHg 45%
    18:00 +21°C° 0.1 mm 3 mps 688 mmHg 50%
    19:00 +20°C° 0.1 mm 2 mps 688 mmHg 55%
    20:00 +20°C° 0 mm 2 mps 688 mmHg 60%
    21:00 +19°C° 0 mm 2 mps 688 mmHg 65%
    22:00 +19°C° 0 mm 1 mps 688 mmHg 69%
    23:00 +19°C° 0 mm 1 mps 688 mmHg 71%

    Tomorrow, 17 October, Thursday

    Time Temperature Precipitation Wind Pressure Humidity
    00:00 +19°C° 0 mm 1 mps 688 mmHg 73%
    01:00 +18°C° 0 mm 1 mps 688 mmHg 75%
    02:00 +18°C° 0 mm 1 mps 688 mmHg 77%
    03:00 +18°C° 0 mm 1 mps 688 mmHg 78%
    04:00 +16°C° 0 mm 1 mps 687 mmHg 80%
    05:00 +16°C° 0 mm 1 mps 687 mmHg 80%
    06:00 +16°C° 0 mm 1 mps 687 mmHg 81%
    07:00 +16°C° 0 mm 1 mps 687 mmHg 81%
    08:00 +18°C° 0 mm 2 mps 688 mmHg 73%
    09:00 +19°C° 0 mm 2 mps 688 mmHg 65%
    10:00 +21°C° 0 mm 2 mps 689 mmHg 57%
    11:00 +22°C° 0 mm 3 mps 689 mmHg 53%
    12:00 +24°C° 0 mm 3 mps 689 mmHg 49%
    13:00 +25°C° 0 mm 3 mps 688 mmHg 45%
    14:00 +25°C° 0.3 mm 3 mps 688 mmHg 46%
    15:00 +25°C° 0.3 mm 3 mps 688 mmHg 46%
    16:00 +25°C° 0.3 mm 3 mps 688 mmHg 47%
    17:00 +24°C° 0.2 mm 3 mps 687 mmHg 51%
    18:00 +23°C° 0.2 mm 2 mps 687 mmHg 55%
    19:00 +21°C° 0.2 mm 2 mps 687 mmHg 59%
    20:00 +21°C° 0 mm 2 mps 687 mmHg 62%
    21:00 +20°C° 0 mm 2 mps 688 mmHg 64%
    22:00 +20°C° 0 mm 2 mps 688 mmHg 66%
    23:00 +20°C° 0 mm 2 mps 688 mmHg 66%

    Day after tomorrow, 18 October, Friday

    Time Temperature Precipitation Wind Pressure Humidity
    00:00 +19°C° 0 mm 2 mps 687 mmHg 67%
    01:00 +20°C° 0 mm 1 mps 687 mmHg 68%
    02:00 +20°C° 0 mm 1 mps 687 mmHg 68%
    03:00 +20°C° 0 mm 1 mps 687 mmHg 69%
    04:00 +19°C° 0 mm 1 mps 686 mmHg 70%
    05:00 +19°C° 0 mm 1 mps 686 mmHg 70%
    06:00 +19°C° 0 mm 1 mps 686 mmHg 71%
    07:00 +19°C° 0 mm 1 mps 686 mmHg 71%
    08:00 +21°C° 0 mm 1 mps 687 mmHg 64%
    09:00 +21°C° 0 mm 2 mps 687 mmHg 57%
    10:00 +24°C° 0 mm 2 mps 688 mmHg 49%
    11:00 +24°C° 0 mm 2 mps 688 mmHg 46%
    12:00 +25°C° 0 mm 2 mps 688 mmHg 42%
    13:00 +26°C° 0 mm 1 mps 688 mmHg 39%
    14:00 +26°C° 0 mm 2 mps 687 mmHg 37%
    15:00 +26°C° 0 mm 2 mps 687 mmHg 36%
    16:00 +26°C° 0 mm 2 mps 687 mmHg 34%
    17:00 +25°C° 0.1 mm 2 mps 686 mmHg 39%
    18:00 +24°C° 0.1 mm 2 mps 686 mmHg 45%
    19:00 +23°C° 0.1 mm 2 mps 686 mmHg 50%
    20:00 +23°C° 0 mm 2 mps 686 mmHg 53%
    21:00 +22°C° 0 mm 1 mps 687 mmHg 56%
    22:00 +21°C° 0 mm 1 mps 687 mmHg 60%
    23:00 +21°C° 0 mm 1 mps 686 mmHg 62%

    19 October, Saturday

    Time Temperature Precipitation Wind Pressure Humidity
    00:00 +21°C° 0 mm 1 mps 686 mmHg 63%
    01:00 +20°C° 0 mm 1 mps 686 mmHg 65%
    02:00 +20°C° 0 mm 1 mps 686 mmHg 66%
    03:00 +20°C° 0 mm 1 mps 685 mmHg 66%
    04:00 +19°C° 0 mm 1 mps 685 mmHg 66%
    05:00 +18°C° 0 mm 2 mps 685 mmHg 66%
    06:00 +18°C° 0 mm 2 mps 685 mmHg 66%
    07:00 +18°C° 0 mm 2 mps 685 mmHg 67%
    08:00 +19°C° 0 mm 3 mps 686 mmHg 60%
    09:00 +21°C° 0 mm 3 mps 686 mmHg 54%
    10:00 +23°C° 0 mm 4 mps 687 mmHg 48%
    11:00 +25°C° 0 mm 5 mps 686 mmHg 46%
    12:00 +25°C° 0 mm 5 mps 686 mmHg 43%
    13:00 +26°C° 0 mm 6 mps 686 mmHg 40%
    14:00 +26°C° 0 mm 6 mps 686 mmHg 41%
    15:00 +26°C° 0 mm 5 mps 686 mmHg 41%
    16:00 +26°C° 0 mm 5 mps 685 mmHg 41%
    17:00 +25°C° 0 mm 5 mps 685 mmHg 45%
    18:00 +23°C° 0 mm 4 mps 685 mmHg 50%
    19:00 +22°C° 0 mm 4 mps 685 mmHg 54%
    20:00 +21°C° 0 mm 4 mps 685 mmHg 55%
    21:00 +21°C° 0 mm 3 mps 685 mmHg 57%
    22:00 +20°C° 0 mm 3 mps 686 mmHg 58%
    23:00 +20°C° 0 mm 3 mps 686 mmHg 59%

    20 October, Sunday

    Time Temperature Precipitation Wind Pressure Humidity
    00:00 +19°C° 0 mm 3 mps 686 mmHg 59%
    01:00 +19°C° 0 mm 2 mps 685 mmHg 60%
    02:00 +19°C° 0 mm 2 mps 685 mmHg 60%
    03:00 +18°C° 0 mm 2 mps 685 mmHg 61%
    04:00 +18°C° 0 mm 2 mps 685 mmHg 61%
    05:00 +18°C° 0 mm 2 mps 685 mmHg 62%
    06:00 +18°C° 0 mm 2 mps 685 mmHg 62%
    07:00 +18°C° 0 mm 2 mps 685 mmHg 62%
    08:00 +19°C° 0 mm 2 mps 686 mmHg 56%
    09:00 +21°C° 0 mm 2 mps 686 mmHg 49%
    10:00 +24°C° 0 mm 2 mps 687 mmHg 43%
    11:00 +25°C° 0 mm 3 mps 687 mmHg 40%
    12:00 +26°C° 0 mm 3 mps 687 mmHg 36%
    13:00 +27°C° 0 mm 4 mps 687 mmHg 33%
    14:00 +26°C° 0 mm 4 mps 686 mmHg 33%
    15:00 +26°C° 0 mm 4 mps 686 mmHg 33%
    16:00 +26°C° 0 mm 5 mps 686 mmHg 33%
    17:00 +25°C° 0 mm 5 mps 686 mmHg 36%
    18:00 +23°C° 0 mm 5 mps 685 mmHg 39%
    19:00 +22°C° 0 mm 4 mps 685 mmHg 42%
    20:00 +21°C° 0 mm 4 mps 685 mmHg 45%
    21:00 +20°C° 0 mm 4 mps 686 mmHg 48%
    22:00 +20°C° 0 mm 4 mps 686 mmHg 52%
    23:00 +19°C° 0 mm 3 mps 685 mmHg 56%

    21 October, Monday

    Time Temperature Precipitation Wind Pressure Humidity
    00:00 +19°C° 0 mm 3 mps 685 mmHg 61%
    01:00 +18°C° 0 mm 3 mps 685 mmHg 66%
    02:00 +18°C° 0 mm 3 mps 685 mmHg 67%
    03:00 +17°C° 0 mm 3 mps 684 mmHg 69%
    04:00 +17°C° 0 mm 2 mps 684 mmHg 71%
    05:00 +17°C° 0 mm 2 mps 684 mmHg 71%
    06:00 +17°C° 0 mm 2 mps 684 mmHg 72%
    07:00 +16°C° 0 mm 2 mps 684 mmHg 72%
    08:00 +18°C° 0 mm 3 mps 685 mmHg 64%
    09:00 +19°C° 0 mm 3 mps 685 mmHg 57%
    10:00 +21°C° 0 mm 4 mps 685 mmHg 50%
    11:00 +22°C° 0 mm 5 mps 685 mmHg 48%
    12:00 +24°C° 0 mm 6 mps 685 mmHg 46%
    13:00 +26°C° 0 mm 7 mps 685 mmHg 45%
    14:00 +24°C° 0 mm 8 mps 685 mmHg 47%
    15:00 +24°C° 0 mm 8 mps 684 mmHg 50%
    16:00 +23°C° 0 mm 9 mps 683 mmHg 52%
    17:00 +22°C° 0 mm 8 mps 683 mmHg 57%
    18:00 +21°C° 0 mm 7 mps 683 mmHg 63%
    19:00 +20°C° 0 mm 6 mps 683 mmHg 68%
    20:00 +20°C° 0 mm 5 mps 683 mmHg 70%
    21:00 +19°C° 0 mm 4 mps 683 mmHg 72%
    22:00 +19°C° 0 mm 3 mps 683 mmHg 74%
    23:00 +18°C° 0 mm 3 mps 683 mmHg 78%
    Show more